Location: Unspecified
(17.6330°N, 0.0000°E)
Time: 03:40:30
(UTC+00:00)

A-11 Canister half - Pass Details

Date: 22 June 2019
Orbit: 1514 x 1685 km, 47.2° (Epoch: 22 July)

Event Time Altitude Azimuth Distance (km) Brightness Sun altitude
Rises 11:24:26 0° 277° (W) 4,906 11.6 79.5°
Reaches altitude 10° 11:29:22 10° 297° (WNW) 3,894 11.2 80.4°
Maximum altitude 11:35:08 17° 333° (NNW) 3,353 11.1 81.4°
Drops below altitude 10° 11:40:51 10° 10° (N) 3,817 11.3 82.4°
Sets 11:45:39 0° 30° (NNE) 4,767 11.7 83.1°
